Regional Weather Roundup
Issued by NWS Memphis, TN

Home | Current Version | Previous Version | Text Only | Print | Product List | Glossary On
Versions: 1 2 3 4 5 6 7 8 9 10 11 12 13 14 15 16 17 18 19 20 21 22 23 24 25 26 27 28 29 30 31 32 33 34 35 36 37 38 39 40 41 42 43 44 45 46 47 48 49 50
000
ASUS44 KMEG 171810
RWRMEG
MEMPHIS CWA HOURLY WEATHER ROUNDUP
NATIONAL WEATHER SERVICE MEMPHIS TN
100 PM CDT THU AUG 17 2017

...WEST TENNESSEE...

CITY           SKY/WX    TMP DP  RH WIND       PRES   REMARKS
MEMPHIS INTL   CLOUDY    85  77  77 SW10      29.97F HX  95
6HR MIN TEMP:  78; 6HR MAX TEMP:  86;

NWS MEMPHIS      N/A     86 N/A N/A MISG        N/A
JACKSON        CLOUDY    85  77  77 SW10G20   29.98F HX  95
6HR MIN TEMP:  76; 6HR MAX TEMP:  86;

COVINGTON      PTSUNNY   86  77  74 SW10G17   29.96F HX  97
LEXINGTON      CLOUDY    82  75  78 S12G17    29.99F
SELMER         CLOUDY    82  75  78 SW12G17   30.01S
SAVANNAH       CLOUDY    82  75  78 S10       30.00F
DYERSBURG      LGT RAIN  81  77  88 SW5       29.96F
6HR MIN TEMP:  76; 6HR MAX TEMP:  83;

UNION CITY     PTSUNNY   84  77  79 SW13G18   29.94F HX  94
PARIS          CLOUDY    82  77  83 SW14      29.95F HX  91
HUNTINGDON     CLOUDY    82  77  83 SW8       29.96  HX  91


...EASTERN ARKANSAS...

CITY           SKY/WX    TMP DP  RH WIND       PRES   REMARKS
JONESBORO      CLOUDY    80  74  81 SW10      29.95F
6HR MIN TEMP:  76; 6HR MAX TEMP:  81; 6HR PCP:  0.01;

WEST MEMPHIS   CLOUDY    85  78  80 SW8       29.95F HX  96
6HR MIN TEMP:  78; 6HR MAX TEMP:  86; 6HR PCP: TRACE;

BATESVILLE     CLOUDY    81  72  74 SW10      29.97F
6HR MIN TEMP:  70; 6HR MAX TEMP:  81; 6HR PCP:  1.10;

NEWPORT        CLOUDY    81  73  78 SW7       29.96F
6HR MIN TEMP:  71; 6HR MAX TEMP:  81; 6HR PCP:  0.08;

WALNUT RIDGE   CLOUDY    79  72  78 W6        29.96F
6HR MIN TEMP:  70; 6HR MAX TEMP:  79; 6HR PCP:  0.34;

NW BLYTHEVILLE PTSUNNY   88  73  62 MISG      29.95F HX  96
SEARCY           N/A    N/A N/A N/A MISG        N/A
PINE BLUFF     PTSUNNY   84  71  65 W9        30.00R
6HR MIN TEMP:  78; 6HR MAX TEMP:  84; 6HR PCP: TRACE;

MONTICELLO     CLOUDY    83  75  77 SW8       29.99F HX  90
6HR MIN TEMP:  79; 6HR MAX TEMP:  85; 6HR PCP:  0.10;



...NORTH MISSISSIPPI...

CITY           SKY/WX    TMP DP  RH WIND       PRES   REMARKS
TUPELO         MOSUNNY   89  72  56 S10G16    30.02F HX  96
6HR MIN TEMP:  74; 6HR MAX TEMP:  89;

OXFORD           N/A    N/A N/A N/A MISG        N/A
BATESVILLE     CLOUDY    87  76  69 SW9G16    30.00F HX  98
6HR MIN TEMP:  76; 6HR MAX TEMP:  87;

OLIVE BRANCH   CLOUDY   N/A N/A N/A SW15G23   29.99S
TUNICA           N/A     86  77  74 SW15G22   29.98F HX  97
CLARKSDALE       N/A     88  81  79 S10       29.98F HX 105
GREENWOOD      MOSUNNY   90  78  68 SW12      30.01F HX 104
6HR MIN TEMP:  75; 6HR MAX TEMP:  90;

COLUMBUS       MOSUNNY   89  82  78 SW9       30.04F HX 109
6HR MIN TEMP:  73; 6HR MAX TEMP:  89;

STARKVILLE     MOSUNNY   88  73  62 SW6       30.05F HX  96
GOLDEN TRIANGL PTSUNNY   88  73  62 W5        30.01F HX  96


...SOUTHEAST MISSOURI...

CITY           SKY/WX    TMP DP  RH WIND       PRES   REMARKS
KENNETT        CLOUDY    82  75  78 SW9       29.93F
MALDEN         CLOUDY    79  70  73 W10       29.95F
WEST PLAINS    PTSUNNY   79  70  74 W12       29.99F
6HR MIN TEMP:  69; 6HR MAX TEMP:  79; 6HR PCP:  0.01;

POPLAR BLUFF   CLOUDY    79  73  82 SW8       29.93F
6HR MIN TEMP:  73; 6HR MAX TEMP:  79; 6HR PCP:  0.01;

CAPE GIRARDEAU PTSUNNY   79  71  76 SW7       29.92F
6HR MIN TEMP:  73; 6HR MAX TEMP:  79; 6HR PCP: TRACE;



...NORTHWEST ALABAMA...

CITY           SKY/WX    TMP DP  RH WIND       PRES   REMARKS
MUSCLE SHOALS  CLOUDY    85  73  67 W10       30.05F HX  91
6HR MIN TEMP:  74; 6HR MAX TEMP:  85;



...MIDDLE TENNESSEE...

CITY           SKY/WX    TMP DP  RH WIND       PRES   REMARKS
NASHVILLE      PTSUNNY   86  72  62 SW10      30.01F HX  92
6HR MIN TEMP:  76; 6HR MAX TEMP:  87;

CLARKSVILLE    CLOUDY    84  74  71 VRB7      29.97F HX  91
6HR MIN TEMP:  75; 6HR MAX TEMP:  84;

COLUMBIA       MOSUNNY   84  73  70 SW10      30.00F HX  91


...WESTERN KENTUCKY...

CITY           SKY/WX    TMP DP  RH WIND       PRES   REMARKS
PADUCAH        CLOUDY    82  72  71 SW10      29.93S
6HR MIN TEMP:  77; 6HR MAX TEMP:  87;

FORT CAMPBELL  PTSUNNY   83  74  74 SW12      29.96F HX  90
6HR MIN TEMP:  76; 6HR MAX TEMP:  83;



...CENTRAL ARKANSAS...

CITY           SKY/WX    TMP DP  RH WIND       PRES   REMARKS
LITTLE ROCK    PTSUNNY   81  74  79 W9        29.99F
6HR MIN TEMP:  74; 6HR MAX TEMP:  81; 6HR PCP: TRACE;



SKY/WX REPORTED AS FAIR MEANS FEW OR NO CLOUDS BELOW
12 THOUSAND FEET.




USA.gov is the U.S. government's official web portal to all federal, state and local government web resources and services.